Regional Weather Roundup
Issued by NWS New Orleans/Baton Rouge, LA

Home | Current Version | Previous Version | Text Only | Print | Product List | Glossary On
Versions: 1 2 3 4 5 6 7 8 9 10 11 12 13 14 15 16 17 18 19 20 21 22 23 24 25 26 27 28 29 30 31 32 33 34 35 36 37 38 39 40 41 42 43 44 45 46 47 48 49 50
000
ASUS44 KLIX 201610
RWRLIX
NEW ORLEANS REGIONAL WEATHER ROUNDUP
NATIONAL WEATHER SERVICE NEW ORLEANS LA
1100 AM CDT SUN APR 20 2014

NOTE: "FAIR" INDICATES FEW OR NO CLOUDS BELOW 12,000 FEET WITH NO
      SIGNIFICANT WEATHER AND/OR OBSTRUCTIONS TO VISIBILITY.
      SKY/WX - SKY CONDITION AND SIGNIFICANT WEATHER.
      TMP - AIR TEMPERATURE.     DP    - DEWPOINT TEMPERATURE.
      RH  - RELATIVE HUMIDITY.   PRES  - PRESSURE.
      HI  - HEAT INDEX.          WCI   - WIND CHILL INDEX.

*  THESE STATIONS ARE NOT NWS OR FAA STATIONS AND ARE NOT UNDER
   NWS QUALITY CONTROL.

LAZ038-040-048-061>063-065>067-069-201700-
SOUTHEAST LOUISIANA

CITY           SKY/WX    TMP DP  RH WIND       PRES   REMARKS
N.O. AUDUBON     N/A     76  58  53 MISG        N/A
N.O. INTL ARPT MOSUNNY   75  59  57 SE6       30.19S
N.O. LAKEFRONT SUNNY     71  60  68 E8        30.20S
N.O. DOWNTOWN*   N/A     73  55  53 CALM      30.19F
SLIDELL        SUNNY     73  57  57 CALM      30.19S
BATON ROUGE    SUNNY     79  51  37 NE7       30.19S
BOOTHVILLE     SUNNY     69  60  73 NE8       30.19S
BELLE CHASSE   MOSUNNY   74  59  59 VRB5      30.18F
BOGALUSA*        N/A     73  56  54 CALM      30.22S
GALLIANO*      SUNNY     74  62  66 E10       30.19S
NEW ROADS*       N/A     75  54  47 E3        30.20S
GONZALES*        N/A     76  56  48 E3        30.18S
HAMMOND*       SUNNY     77  55  47 CALM      30.21S
HOUMA*         SUNNY     79  57  47 NE5       30.20R
PORT FOURCHON* SUNNY     72  63  73 E8G15     30.21R

$$

MSZ070-080>082-201700-
SOUTHERN MISSISSIPPI

CITY           SKY/WX    TMP DP  RH WIND       PRES   REMARKS
MCCOMB         MOSUNNY   72  57  59 S6        30.21S
GULFPORT       SUNNY     74  54  49 N6        30.18F
BILOXI         SUNNY     71  57  59 N6        30.19S
PASCAGOULA     SUNNY     71  54  54 N10       30.18F
STENNIS ARPT*  SUNNY     72  54  53 CALM      30.19F

$$

COASTAL OBSERVATIONS
LAKE AND NEARSHORE STATIONS

STATION/POSITION TIME  TEMP    WIND        PRES    WAVE
                       AIR SEA DIR/SP/G            HT/PER
                 (UTC) (F)     (DEG/KT/KT) (MB)    (FT/S)
PASCAGOULA       1600   69     350/  7/ 10 1021.5
WAVELAND YACHT   1600   66 69  170/  5/  6 1021.7
GRAND ISLE       1600   71 68  110/  5/  9 1022.7
SOUTHWEST PASS   1600   72 58   60/  9/ 10 1022.3
NEW CANAL        1600   72 67   80/  4/  8 1022.7
SHELL BEACH      1600   68 65   50/  8/  9 1022.3

OFFSHORE STATIONS

STATION/POSITION TIME  TEMP    WIND        PRES    WAVE
                       AIR SEA DIR/SP/G            HT/PER
                 (UTC) (F)     (DEG/KT/KT) (MB)    (FT/S)
64 S DAUPHIN ISL 1544   64 71   20/ 14/ 16 1021.9

$$




USA.gov is the U.S. government's official web portal to all federal, state and local government web resources and services.